SONATE-2
1 59112U 24043Q   26103.20064799  .00025361  00000-0  38941-3 0  9995
2 59112  97.5449 249.8789 0007460  84.9839 275.2265 15.54238593117781
GRBBeta
1 60237U 24128C   26103.23392140  .00002409  00000-0  17457-3 0  9993
2 60237  61.9885  84.0612 0048242 120.9799 239.6046 15.06127561 96486
Curium One
1 60242U 24128H   26103.29303539  .00004642  00000-0  27863-3 0  9992
2 60242  61.9779  75.4318 0047942 117.1837 243.4157 15.11497308 96647
ROBUSTA-3A
1 60243U 24128J   26103.22239962  .00004039  00000-0  24950-3 0  9998
2 60243  61.9860  77.8013 0048958 114.7138 245.9064 15.10681051 96601
CatSat
1 60246U 24125J   26103.02333060  .00032538  00000-0  52848-3 0  9992
2 60246  97.2174 314.9892 0025762  66.5344 293.8613 15.52270149 97268
HYPERVIEW-1G (RS66S)
1 61772U 24199AP  26103.25368157  .00050622  00000-0  54824-3 0  9998
2 61772  97.3015 340.3444 0009049 143.0934 217.0949 15.63368961124498
AO-123
1 61781U 24199AY  26103.24469013  .00004992  00000-0  15021-3 0  9995
2 61781  97.3102 332.5129 0014232 174.7855 185.3539 15.34735944123961
JINJUSat 1B
1 63210U 25052A   26103.24136057  .00009356  00000-0  30961-3 0  9991
2 63210  97.4081 359.9862 0002383 356.3003   3.8221 15.31544296 60159
NUSHSAT 1
1 63211U 25052B   26102.66104735  .00013498  00000-0  41865-3 0  9992
2 63211  97.4053 359.7713 0002444   7.0626 353.0650 15.33525277 60090
TEVEL2-4
1 63213U 25052D   26102.14379088  .00014476  00000-0  46496-3 0  9994
2 63213  97.3976 358.5171 0002817  33.2261 326.9157 15.32390087 59996
TEVEL2-5
1 63214U 25052E   26102.61473013  .00011472  00000-0  37064-3 0  9994
2 63214  97.3973 358.9527 0002717  31.1743 328.9660 15.32259496 60063
TEVEL2-6
1 63215U 25052F   26103.14790279  .00010370  00000-0  33560-3 0  9993
2 63215  97.3969 359.4703 0002800  29.4980 330.6419 15.32230603 60147
TEVEL2-1
1 63217U 25052H   26103.22135919  .00009903  00000-0  32520-3 0  9993
2 63217  97.3951 359.2407 0003292  37.6089 322.5382 15.31772235 60146
TEVEL2-3
1 63218U 25052J   26103.21805767  .00010034  00000-0  32904-3 0  9991
2 63218  97.3952 359.2524 0003362  37.4192 322.7284 15.31814796 60141
TEVEL2-2
1 63219U 25052K   26103.22194160  .00009830  00000-0  32279-3 0  9998
2 63219  97.3950 359.2427 0003326  37.6568 322.4906 15.31776622 60144
TEVEL2-9
1 63237U 25052AD  26102.98848303  .00010761  00000-0  37321-3 0  9993
2 63237  97.4016 358.5168 0007056  31.2023 328.9635 15.29961322 60052
TEVEL2-7
1 63238U 25052AE  26103.21420618  .00009018  00000-0  31559-3 0  9996
2 63238  97.4019 358.6826 0007171  30.3699 329.7955 15.29718282 60087
TEVEL2-8
1 63239U 25052AF  26103.22170306  .00008910  00000-0  31205-3 0  9992
2 63239  97.4017 358.6694 0007171  31.1859 328.9805 15.29698461 60087
HYDRA-W
1 63490U 25052BL  26103.23843731  .00549823  11709-3  19038-2 0  9994
2 63490  97.3789   6.5098 0005553 136.7318 223.4392 15.89443605 60626
HADES-ICM (SO-125)
1 63492U 25052BN  26102.69507884  .00185348  00000-0  14856-2 0  9991
2 63492  97.3858   4.6786 0004582  78.9999 281.1779 15.70457439 60452
SPIRONE
1 66657U 25274H   26102.32446873  .00001277  00000-0  12734-3 0  9995
2 66657  97.7451  32.5802 0010912 229.3207 130.7065 14.93279896 20397
K-HERO
1 66660U 25274L   26103.21870720  .00001818  00000-0  17694-3 0  9991
2 66660  97.7463  33.5731 0012636 230.5818 129.4284 14.93720772 20531
SNUGLITE-III DURI
1 66661U 25274M   26103.07484613  .00001502  00000-0  14683-3 0  9993
2 66661  97.7464  33.4495 0013319 232.8575 127.1429 14.93786452 20514
SilverSat
1 66909U 98067XV  26101.44198092  .00588813  15493-3  14302-2 0  9997
2 66909  51.6155 254.7584 0011918 300.1845  59.7981 15.95566356 20373
SAKHACUBE-CHOLBON
1 67290U 25313AU  26102.70975902  .00006133  00000-0  25815-3 0  9995
2 67290  97.3961 178.6164 0008767 218.2535 141.8082 15.23704209 16002
RS95S (QMR-KWT-2)
1 67291U 25313AV  26103.14063259  .00008868  00000-0  36191-3 0  9994
2 67291  97.3960 179.1067 0008688 214.9600 145.1068 15.24616530 16076
Ten-Koh2
1 68261U 25241B   26102.94317612  .00005726  00000-0  25358-3 0  9997
2 68261  51.6417 270.0027 0004946 286.6985  73.3450 15.23054096  4960
IO-86
1 40931U          25360.30710720  .00000000  00000-0  12800-3 0    00
2 40931   6.0006 332.5373 0012733 338.8432   8.1437 14.79075515    01
HADES-SA/SpinnyONE
1 71958C 26067D   26089.49758863 -.00009989  00000+0 -51655-3 0    00
2 71958  97.4320  49.1630 0007687  13.6276 327.6456 15.16316797    13
LILIUM-4                
1 71922C 26067AC  26089.50133053 -.00014632  00000+0 -74472-3 0    04
2 71922  97.4497  49.1617 0004341   5.9603 355.7042 15.16896692    16
PARUS-6U1                
1 71919C 26067Q   26089.49893470 -.00013781  00000+0 -70600-3 0    07
2 71919  97.4488  49.1589 0005235 359.3198 349.2677 15.16662579    15
JACK-002                
1 71927C 26067C   26089.49750414 -.00013014  00000+0 -63498-3 0    02
2 71927  97.4500  49.1567 0002681 143.8886 196.8842 15.18377566    18
SAL-E                   
1 71904C 26067L   26089.49846595 -.00007742  00000+0 -39877-3 0    08
2 71904  97.4412  49.1602 0006442   8.2554 337.7892 15.16462720    16
DISCO-2                 
1 71908C 26067U   26089.49955160 -.00011726  00000+0 -58129-3 0    09
2 71908  97.4541  49.1588 0000289 282.0588  69.8834 15.17826845    10
